Flag for Sweden Weather past 2 weeks in Kiruna, Sweden

Now
46 °F

Sunny.


Feels Like: 41 °F
Forecast: 22 / 41 °F
Wind: 10 mph from Northwest

Location: Kiruna Airport


UV Index: 0 (Low)

Visibility: 10 mi


Pressure: 30.21 "Hg

Humidity: 32%

Dew point: 18 °F

Location of KirunaLocation

Historic Weather in Kiruna

°F

Kiruna temperature yesterday

Maximum temperature yesterday: 37 °F (at 5:20 PM)
Minimum temperature yesterday: 25 °F (at 12:20 AM)
Average temperature yesterday: 31 °F

Past Weeks' High & Low Weather Summary

 TemperatureHumidityPressure
High46 °F (Apr 24, 11:50 AM)100% (Apr 14, 1:50 AM)30.48 "Hg (Apr 14, 1:50 AM)
Low14 °F (Apr 16, 5:50 AM)27% (Apr 24, 12:20 PM)29.00 "Hg (Apr 13, 2:50 AM)
Average33 °F69%29.71 "Hg
* Reported Apr 9 2:20 PM — Apr 24 2:50 PM, Kiruna, Weather by CustomWeather, © 2014

Note: Actual official high and low records may vary slightly from our data, if they occured in-between our weather recording intervals... More about our weather records

Advertising

Historic Weather Conditions — Data for Previous 24 hours

 ConditionsComfort  
Time TempWeatherWind HumidityBarometerVisibility
2:50 PM
Apr 24
46 °FPassing clouds.9 mph32%30.21 "HgN/A
2:20 PM46 °FPassing clouds.6 mph29%30.24 "HgN/A
1:50 PM46 °FSunny.9 mph27%30.24 "Hg10 mi
1:20 PM45 °FSunny.13 mph29%30.24 "Hg10 mi
12:50 PM46 °FPassing clouds.12 mph27%30.24 "HgN/A
12:20 PM46 °FPassing clouds.6 mph27%30.24 "HgN/A
11:50 AM46 °FScattered clouds.10 mph29%30.24 "HgN/A
11:20 AM45 °FSunny.10 mph31%30.24 "Hg10 mi
10:50 AM45 °FSunny.10 mph29%30.24 "Hg10 mi
10:20 AM43 °FSunny.10 mph34%30.27 "Hg10 mi
9:20 AM41 °FSunny.8 mph33%30.24 "Hg10 mi
8:50 AM36 °FSunny.3 mph52%30.27 "Hg10 mi
8:20 AM34 °FPassing clouds.2 mph56%30.27 "HgN/A
7:50 AM30 °FSunny.2 mph59%30.27 "Hg10 mi
7:20 AM28 °FPassing clouds.7 mph64%30.27 "HgN/A
6:50 AM27 °FPassing clouds.3 mph69%30.27 "HgN/A
6:20 AM27 °FSunny.5 mph64%30.27 "Hg10 mi
5:50 AM27 °FChilly.6 mph64%30.27 "HgN/A
5:20 AM25 °FCold.8 mph69%30.27 "HgN/A
4:50 AM25 °FPassing clouds.3 mph69%30.30 "HgN/A
4:20 AM23 °FCold.2 mph80%30.30 "HgN/A
3:50 AM25 °FCold.5 mph69%30.30 "HgN/A
3:20 AM25 °FCold.5 mph74%30.30 "HgN/A
2:50 AM25 °FCold.2 mph74%30.33 "HgN/A
2:20 AM27 °FChilly.3 mph69%30.33 "HgN/A
1:50 AM28 °FChilly.8 mph64%30.33 "HgN/A
1:20 AM27 °FChilly.8 mph69%30.33 "HgN/A
12:20 AM28 °FChilly.9 mph64%30.36 "HgN/A
11:50 PM
Apr 23
28 °FChilly.7 mph69%30.36 "HgN/A
11:20 PM30 °FChilly.10 mph64%30.36 "HgN/A
10:50 PM30 °FChilly.8 mph64%30.39 "HgN/A
10:20 PM30 °FClear.8 mph64%30.39 "Hg10 mi
9:50 PM30 °FSunny.7 mph69%30.39 "Hg10 mi
9:20 PM32 °FSunny.8 mph60%30.39 "Hg10 mi
8:50 PM34 °FPassing clouds.7 mph56%30.42 "HgN/A
8:20 PM34 °FSunny.6 mph56%30.42 "Hg10 mi
7:50 PM36 °FSunny.3 mph52%30.42 "Hg10 mi
7:20 PM36 °FPassing clouds.5 mph56%30.42 "HgN/A
6:50 PM37 °FPassing clouds.3 mph52%30.42 "HgN/A
6:20 PM36 °FPassing clouds.6 mph56%30.45 "HgN/A
5:50 PM36 °FSunny.10 mph56%30.45 "Hg10 mi
5:20 PM37 °FSunny.12 mph48%30.45 "Hg10 mi
4:50 PM36 °FSunny.9 mph56%30.45 "Hg10 mi
4:20 PM36 °FSunny.13 mph56%30.45 "Hg10 mi
3:50 PM36 °FSunny.13 mph52%30.45 "Hg10 mi
3:20 PM36 °FSunny.16 mph52%30.45 "Hg10 mi
Weather by CustomWeather, © 2014

See weather overview